CW3065 Weather Reports


time (UTC)temp
C
wind
direction
speed
KPH
gust
KPH
rain 1hr
cm
rain 24hr
cm
rain mn
cm
humidity
%
barometer
mb
20260506012503 -3 71 0.0 0.0 0.00 0.48 0.41 93 1009.9
20260506012004 -3 73 0.0 0.0 0.00 0.48 0.41 93 1009.6
20260506011503 -3 73 0.0 0.0 0.00 0.51 0.41 93 1009.5
20260506010503 -3 97 0.0 0.0 0.00 0.51 0.41 93 1009.4
20260506010003 -3 47 0.0 0.0 0.00 0.53 0.41 93 1009.4
20260506005504 -3 82 0.0 0.0 0.00 0.56 0.41 93 1009.3
20260506005004 -3 101 0.0 0.0 0.00 0.58 0.41 92 1008.9
20260506004504 -3 102 0.0 0.0 0.00 0.61 0.41 92 1008.9
20260506004003 -3 96 0.0 0.0 0.00 0.66 0.41 92 1008.9
20260506003504 -3 94 0.0 0.0 0.00 0.69 0.41 92 1009.0
20260506003004 -3 79 0.0 0.0 0.03 0.71 0.41 92 1009.0
20260506002504 -3 90 0.0 0.0 0.03 0.76 0.41 92 1009.0
20260506002004 -3 100 0.0 0.0 0.03 0.79 0.41 92 1008.8
20260506001504 -3 74 0.0 0.0 0.03 0.81 0.41 92 1008.8
20260506000004 -3 52 0.0 0.0 0.03 0.97 0.41 92 1008.7
20260505235503 -3 69 0.0 0.0 0.03 0.97 0.41 93 1008.8
20260505235004 -3 84 0.0 0.0 0.03 1.02 0.41 93 1008.7
20260505234004 -3 73 0.0 0.0 0.03 1.27 0.41 93 1008.6
20260505233504 -3 92 0.0 0.0 0.03 1.32 0.41 93 1008.6
20260505233004 -3 91 0.0 0.0 0.00 1.30 0.38 93 1008.6
20260505232503 -3 92 0.0 0.0 0.00 1.30 0.38 93 1008.5
20260505232004 -3 94 0.0 0.0 0.00 1.30 0.38 93 1008.4
20260505231504 -3 109 0.0 0.0 0.00 1.30 0.38 93 1008.7
20260505231003 -3 96 0.0 0.0 0.00 1.30 0.38 93 1008.8
20260505230004 -3 112 0.0 0.0 0.00 1.30 0.38 92 1008.8
20260505225004 -3 105 0.0 0.0 0.00 1.30 0.38 92 1008.2
20260505224504 -3 103 0.0 0.0 0.03 1.30 0.38 92 1008.2
20260505224004 -3 99 0.0 0.0 0.03 1.30 0.38 92 1008.2
20260505223504 -3 97 0.0 0.0 0.03 1.30 0.38 91 1008.2
20260505223004 -3 104 0.0 0.0 0.03 1.30 0.38 92 1008.2
20260505222504 -2 102 0.0 0.0 0.03 1.30 0.38 92 1008.2
20260505222004 -2 84 0.0 0.0 0.03 1.30 0.38 92 1008.2
20260505221503 -2 48 0.0 0.0 0.03 1.30 0.38 92 1008.1
20260505221004 -2 47 0.0 0.0 0.03 1.30 0.38 91 1007.7
20260505220503 -2 42 0.0 0.0 0.03 1.30 0.38 91 1007.7
20260505220003 -2 50 0.0 0.0 0.05 1.30 0.38 91 1007.5
20260505214504 -2 79 0.0 0.0 0.03 1.27 0.36 89 1006.9
20260505214003 -1 79 0.0 0.0 0.03 1.27 0.36 89 1006.7
20260505213504 -1 102 0.0 0.0 0.03 1.27 0.36 89 1006.6
20260505213004 -1 79 0.0 0.0 0.03 1.27 0.36 88 1006.2
20260505212504 0 110 0.0 0.0 0.03 1.27 0.36 88 1006.2
20260505212004 0 107 0.0 1.6 0.03 1.27 0.36 90 1006.0
20260505211503 0 51 0.0 1.6 0.05 1.27 0.36 92 1006.0
20260505211004 0 75 0.0 0.0 0.05 1.27 0.36 92 1006.1
20260505210504 0 75 0.0 1.6 0.05 1.27 0.36 93 1006.1
20260505210004 0 118 0.0 0.0 0.03 1.24 0.33 93 1006.2
20260505205504 0 118 0.0 0.0 0.03 1.24 0.33 93 1006.1
20260505205004 0 119 0.0 0.0 0.03 1.27 0.33 92 1006.2
20260505204003 0 119 0.0 0.0 0.03 1.27 0.33 92 1006.5
20260505203503 0 119 0.0 0.0 0.03 1.27 0.33 93 1006.4
20260505203004 -1 119 0.0 0.0 0.05 1.27 0.33 93 1006.6
20260505201504 -1 109 0.0 0.0 0.03 1.24 0.30 92 1007.0
20260505200004 -1 147 0.0 0.0 0.03 1.24 0.30 92 1007.1
20260505195504 -1 147 0.0 0.0 0.05 1.24 0.30 91 1007.3
20260505195004 -1 147 0.0 0.0 0.05 1.24 0.30 91 1007.0
20260505194004 0 119 0.0 0.0 0.05 1.24 0.30 91 1006.9
20260505193504 0 118 0.0 0.0 0.05 1.24 0.30 91 1006.8
20260505192503 0 59 0.0 0.0 0.03 1.22 0.28 93 1006.9
20260505192003 0 341 0.0 0.0 0.05 1.22 0.28 93 1007.0
20260505191503 0 341 0.0 0.0 0.05 1.22 0.28 93 1007.0
20260505191004 0 341 0.0 0.0 0.05 1.22 0.28 93 1007.0
20260505190504 0 341 0.0 0.0 0.05 1.22 0.28 93 1007.1
20260505190004 0 341 0.0 0.0 0.05 1.22 0.28 93 1007.1
20260505185504 0 341 3.2 4.8 0.05 1.19 0.25 93 1007.0
20260505185004 0 300 1.6 4.8 0.05 1.19 0.25 94 1006.5
20260505184004 -1 154 0.0 0.0 0.05 1.19 0.25 93 1006.6
20260505183504 -1 154 0.0 4.8 0.05 1.19 0.25 92 1006.6
20260505183004 -1 154 3.2 4.8 0.05 1.19 0.25 92 1006.6
20260505182503 -1 168 4.8 9.7 0.05 1.19 0.25 91 1006.6
20260505182004 0 134 1.6 4.8 0.03 1.17 0.23 91 1006.5
20260505180504 0 126 4.8 9.7 0.05 1.17 0.23 92 1006.5
20260505180004 0 121 4.8 11.3 0.05 1.17 0.23 91 1006.5
20260505175504 0 113 4.8 9.7 0.03 1.14 0.20 92 1006.3
20260505175004 0 112 4.8 9.7 0.03 1.14 0.20 93 1006.1
20260505174504 0 352 0.0 0.0 0.03 1.14 0.20 94 1006.5
20260505174003 0 352 0.0 0.0 0.05 1.14 0.20 94 1006.5
20260505173503 0 352 0.0 0.0 0.05 1.14 0.20 94 1006.5
20260505173003 0 352 1.6 4.8 0.05 1.14 0.20 93 1006.4
20260505172504 0 352 1.6 4.8 0.05 1.14 0.20 93 1006.4
20260505172004 0 55 0.0 0.0 0.05 1.14 0.20 93 1006.4
20260505171504 0 86 0.0 0.0 0.03 1.12 0.18 93 1006.5
20260505171004 0 86 0.0 3.2 0.03 1.12 0.18 94 1006.5
20260505170504 0 96 1.6 4.8 0.03 1.12 0.18 93 1006.5
20260505170004 0 107 1.6 3.2 0.03 1.12 0.18 93 1006.4
20260505165503 0 107 0.0 0.0 0.03 1.12 0.18 92 1006.4
20260505165004 0 107 1.6 4.8 0.03 1.12 0.18 91 1006.7
20260505164504 0 60 0.0 0.0 0.03 1.12 0.18 92 1006.7
20260505164003 0 48 0.0 0.0 0.00 1.09 0.15 94 1006.3
20260505163503 0 48 0.0 4.8 0.00 1.09 0.15 95 1006.1
20260505163004 0 48 0.0 4.8 0.00 1.09 0.15 94 1006.1
20260505162504 0 48 0.0 3.2 0.00 1.09 0.15 94 1006.1
20260505162003 0 26 1.6 3.2 0.00 1.09 0.15 94 1006.1
20260505161504 0 46 3.2 4.8 0.00 1.09 0.15 94 1006.1
20260505161004 0 36 3.2 4.8 0.00 1.09 0.15 94 1006.2
20260505160504 0 44 3.2 4.8 0.00 1.09 0.15 94 1006.4
20260505153004 0 54 1.6 3.2 0.00 1.09 0.15 94 1006.1
20260505152504 0 44 1.6 3.2 0.00 1.09 0.15 95 1006.1
20260505152003 0 57 3.2 4.8 0.00 1.09 0.15 94 1006.1
20260505151504 0 108 3.2 4.8 0.00 1.09 0.15 95 1005.9
20260505150503 0 50 0.0 4.8 0.00 1.09 0.15 95 1005.9
20260505140503 -1 36 3.2 4.8 0.00 1.09 0.15 95 1005.9
20260505125004 -1 81 6.4 9.7 0.00 1.09 0.15 95 1005.0
20260505124504 -1 69 4.8 9.7 0.00 1.09 0.15 95 1005.0
20260505124004 -1 59 3.2 9.7 0.00 1.09 0.15 94 1005.0
20260505123504 -1 82 4.8 11.3 0.00 1.09 0.15 95 1004.9
20260505123004 -1 72 3.2 9.7 0.00 1.09 0.15 95 1005.0
20260505122503 -1 77 6.4 8.0 0.00 1.09 0.15 94 1005.0
20260505122004 -1 80 6.4 12.9 0.00 1.09 0.15 94 1004.9
20260505121503 -1 81 6.4 11.3 0.00 1.09 0.15 94 1004.7
20260505121004 -1 74 4.8 16.1 0.00 1.09 0.15 94 1004.6
20260505120504 -1 61 8.0 9.7 0.00 1.09 0.15 94 1004.7
20260505120004 -1 52 8.0 16.1 0.00 1.09 0.15 94 1004.6
20260505115504 -1 50 8.0 14.5 0.00 1.09 0.15 94 1004.5
20260505115004 -1 63 9.7 16.1 0.00 1.09 0.15 94 1004.8
20260505114504 -1 54 8.0 19.3 0.00 1.09 0.15 94 1004.7
20260505113504 -1 48 8.0 14.5 0.00 1.09 0.15 94 1004.5
20260505113004 0 68 9.7 19.3 0.00 1.09 0.15 94 1004.2
20260505112503 0 65 8.0 19.3 0.00 1.09 0.15 94 1004.2
20260505112004 0 64 9.7 14.5 0.00 1.09 0.15 94 1004.2
20260505111503 0 81 8.0 16.1 0.00 1.09 0.15 95 1004.2
20260505111004 0 81 4.8 11.3 0.00 1.09 0.15 95 1004.2
20260505110504 0 71 8.0 9.7 0.00 1.09 0.15 95 1004.1
20260505101503 0 64 4.8 11.3 0.00 1.09 0.15 95 1004.3
20260505100503 0 84 9.7 19.3 0.03 1.09 0.15 94 1004.3
20260505100003 0 47 6.4 12.9 0.03 1.09 0.15 94 1004.3
20260505095504 0 45 6.4 11.3 0.03 1.09 0.15 94 1004.2
20260505095004 0 40 9.7 16.1 0.03 1.09 0.15 94 1004.2
20260505094504 0 43 11.3 16.1 0.03 1.09 0.15 94 1004.2
20260505094004 0 59 8.0 14.5 0.03 1.09 0.15 94 1004.2
20260505093004 0 62 11.3 19.3 0.03 1.09 0.15 94 1004.0
20260505092503 0 52 8.0 19.3 0.03 1.09 0.15 94 1004.0
20260505091503 1 63 9.7 19.3 0.03 1.09 0.15 94 1004.0
20260505091004 1 57 9.7 19.3 0.05 1.09 0.15 94 1003.9
20260505085504 1 50 9.7 16.1 0.03 1.07 0.13 95 1003.9
20260505085004 1 49 11.3 14.5 0.03 1.07 0.13 94 1003.9
20260505084504 1 54 8.0 16.1 0.03 1.07 0.13 94 1003.9
20260505084004 1 38 8.0 14.5 0.03 1.07 0.13 94 1003.9
20260505083504 1 58 8.0 11.3 0.03 1.07 0.13 94 1003.9
20260505083004 1 51 8.0 14.5 0.05 1.07 0.13 94 1004.0
20260505082004 1 47 9.7 16.1 0.10 1.07 0.13 94 1004.1
20260505081504 2 59 9.7 14.5 0.13 1.07 0.13 94 1004.1
20260505081004 2 54 4.8 11.3 0.10 1.04 0.10 94 1004.0
20260505080504 2 47 9.7 19.3 0.10 1.04 0.10 94 1004.0
20260505075504 2 76 11.3 16.1 0.10 1.04 0.10 94 1004.0
20260505075005 2 77 11.3 19.3 0.10 1.04 0.10 94 1004.0
20260505074504 3 93 8.0 16.1 0.10 1.04 0.10 94 1004.1
20260505074004 3 92 8.0 16.1 0.10 1.04 0.10 95 1004.2
20260505073504 3 113 4.8 11.3 0.10 1.04 0.10 95 1004.3
20260505073003 3 46 1.6 3.2 0.08 1.02 0.08 95 1004.3
20260505071503 3 46 1.6 3.2 0.00 0.94 0.00 95 1004.3
20260505071004 3 46 0.0 0.0 0.00 0.94 0.00 95 1004.3
20260505070504 3 46 0.0 0.0 0.00 0.94 0.00 95 1004.3
20260505070003 3 46 0.0 0.0 0.00 0.94 0.00 95 1004.3
20260505065004 3 46 0.0 0.0 0.00 0.94 0.00 95 1004.3
20260505064503 3 46 0.0 0.0 0.00 0.94 0.00 95 1004.4
20260505064003 3 46 0.0 0.0 0.00 0.94 0.00 95 1004.5
20260505063504 3 46 0.0 0.0 0.00 0.94 0.00 95 1004.5
20260505063003 2 46 0.0 0.0 0.00 0.94 0.00 95 1004.5
20260505062503 2 46 0.0 0.0 0.00 0.94 0.00 95 1004.6
20260505062004 2 46 0.0 0.0 0.00 0.94 0.00 95 1004.6
20260505061003 2 46 0.0 0.0 0.00 0.94 0.00 94 1004.6
20260505060504 2 46 0.0 0.0 0.00 0.94 0.00 94 1004.6
20260505060003 2 46 0.0 0.0 0.00 0.94 0.00 94 1004.6
20260505055503 2 46 0.0 0.0 0.00 0.94 0.94 94 1004.7
20260505054503 2 46 0.0 0.0 0.00 0.94 0.94 94 1004.7
20260505054004 2 46 0.0 0.0 0.00 0.94 0.94 94 1004.6
20260505053004 2 46 0.0 0.0 0.00 0.94 0.94 94 1004.6
20260505052504 2 46 0.0 0.0 0.00 0.94 0.94 94 1004.7
20260505052004 2 46 0.0 0.0 0.00 0.94 0.94 94 1004.6
20260505051504 2 46 0.0 0.0 0.00 0.94 0.94 94 1004.6
20260505051004 2 46 0.0 0.0 0.00 0.94 0.94 93 1004.6
20260505041504 3 46 0.0 0.0 0.00 0.94 0.94 93 1004.6
20260505041004 3 46 0.0 3.2 0.00 0.94 0.94 93 1004.5
20260505040504 3 46 1.6 4.8 0.00 0.94 0.94 93 1004.5
20260505040004 3 61 0.0 0.0 0.00 0.94 0.94 93 1004.5
20260505035504 3 61 0.0 0.0 0.00 0.94 0.94 93 1004.5
20260505035004 3 61 1.6 4.8 0.00 0.94 0.94 93 1004.4
20260505034504 3 61 3.2 4.8 0.00 0.94 0.94 93 1004.4
20260505034004 3 61 3.2 4.8 0.00 0.94 0.94 93 1004.5
20260505033004 3 46 1.6 4.8 0.00 0.94 0.94 92 1004.8
20260505032504 3 46 3.2 4.8 0.00 0.94 0.94 92 1004.6
20260505032004 3 46 4.8 8.0 0.00 0.94 0.94 92 1004.6
20260505031004 3 232 0.0 0.0 0.00 0.94 0.94 92 1004.5
20260505030504 3 232 0.0 0.0 0.00 0.94 0.94 92 1004.4
20260505030004 3 232 0.0 0.0 0.00 0.94 0.94 92 1004.3
20260505025503 3 232 0.0 0.0 0.00 0.94 0.94 92 1004.3
20260505024503 3 232 0.0 4.8 0.03 0.94 0.94 92 1003.9
20260505023504 3 281 1.6 4.8 0.08 0.94 0.94 92 1003.9
20260505022504 3 281 3.2 4.8 0.08 0.94 0.94 92 1003.8
20260505021504 3 280 1.6 4.8 0.10 0.94 0.94 92 1003.8
20260505021004 3 280 1.6 4.8 0.10 0.94 0.94 93 1003.8
20260505020504 3 280 3.2 4.8 0.10 0.94 0.94 92 1003.9
20260505015504 3 209 12.9 19.3 0.15 0.94 0.94 92 1003.5
20260505015004 3 172 9.7 14.5 0.15 0.91 0.91 92 1003.1
20260505014004 3 97 3.2 4.8 0.20 0.89 0.89 92 1003.8
20260505013504 3 97 1.6 3.2 0.20 0.86 0.86 92 1003.9
20260505013003 3 97 0.0 0.0 0.23 0.86 0.86 92 1003.9